#timestamp,LO_Frequency,Hit,StdDev 
1711054815.3,286047021.8,N
1711054835.1,286047021.8,N
1711054855.9,286047018.2,N
1711054875.7,286047016.5,N
1711054895.5,286047015.5,N
1711054915.4,286047015.3,N
1711054935.2,286047013.8,N
1711054955.0,286047012.4,N
1711054956.0,286047012.4,N
1711054975.8,286047013.8,N
1711054995.6,286047009.4,N
1711055015.5,286047013.3,N
1711055035.3,286047023.1,N
1711055055.1,286047023.1,N
1711055075.9,286047023.9,N
1711055095.7,286047029.2,N
1711055115.6,286047030.1,Y
1711055135.4,286047008.7,P
1711055155.2,286047012.3,N
1711055175.1,286047015.8,N
1711055176.0,286047015.8,N
1711055195.8,286047015.9,N
1711055215.6,286047017.8,Y
1711055235.5,286047004.1,P
1711055255.3,286047006.0,N
1711055275.2,286047007.2,N
1711055295.9,286047008.4,N
1711055315.7,286047008.7,N
1711055335.6,286047004.1,N
1711055355.4,286046999.3,N
1711055375.2,286046998.0,N
1711055395.1,286046996.6,N
1711055396.0,286046996.6,N
1711055415.8,286047003.6,N
1711055435.7,286047002.9,N
1711055455.5,286047001.9,N
1711055475.3,286047001.2,N
1711055495.2,286046998.9,N
1711055515.0,286046997.5,N
1711055515.9,286046997.5,N
1711055535.7,286046997.1,N
1711055555.6,286046996.9,N
1711055575.4,286047002.0,N
1711055595.3,286047008.1,N
1711055615.1,286047013.2,N
1711055616.0,286047013.2,N
1711055635.8,286047014.1,N
1711055655.7,286047019.1,Y
1711055675.5,286047016.7,P
1711055695.3,286047013.1,N
1711055715.2,286047010.1,N
1711055735.0,286047004.3,N
1711055735.9,286047004.3,N
1711055755.8,286046998.0,N
1711055775.6,286046992.5,N
1711055795.4,286046985.5,N
1711055815.3,286046982.8,N
1711055835.1,286046981.2,N
1711055855.8,286046976.1,N
1711055875.7,286046974.1,N
1711055895.5,286046974.4,N
1711055915.4,286046975.9,N
1711055935.2,286046977.2,N
1711055955.0,286046975.6,N
1711055955.9,286046975.6,N
1711055975.8,286046973.3,N
1711055995.6,286046971.3,N
1711056015.4,286046970.8,N
1711056035.3,286046967.5,N
1711056055.1,286046966.6,N
1711056075.9,286046964.3,N
1711056095.7,286046958.5,N
1711056115.5,286046959.2,N
1711056135.4,286046955.6,N
1711056155.2,286046955.5,N
1711056175.0,286046958.0,N
1711056175.9,286046958.0,N
1711056195.8,286046955.7,N
1711056215.6,286046955.4,N
1711056235.5,286046953.4,N
1711056255.3,286046955.7,N
1711056275.1,286046957.3,N
1711056295.9,286046955.6,Y
1711056315.7,286046985.7,P
1711056335.5,286046985.0,N
1711056355.4,286046987.6,N
1711056375.2,286046985.3,N
1711056395.1,286046989.7,N
1711056396.0,286046989.7,N
1711056415.8,286046989.2,N
1711056435.6,286046986.5,N
1711056455.5,286046985.0,N
1711056475.3,286046983.4,Y
1711056495.2,286046993.4,P
1711056515.9,286046992.0,N
1711056535.7,286046989.1,P
1711056555.6,286046985.4,Y
1711056575.4,286046997.4,P
1711056595.2,286046997.2,N
1711056615.1,286046995.0,N
1711056616.0,286046995.0,N
1711056635.8,286046992.5,N
1711056655.7,286046988.6,Y
1711056675.5,286046998.5,P
1711056695.3,286046997.1,N
1711056715.2,286046995.8,N
1711056735.0,286046993.3,Y
1711056735.9,286046993.3,P
1711056755.7,286046996.6,N
1711056775.6,286046997.7,N
1711056795.4,286046996.1,N
1711056815.3,286046996.5,N
1711056835.1,286046999.0,N
1711056836.0,286046999.0,N
1711056855.8,286046997.7,N
1711056875.7,286046996.8,N
1711056895.5,286046997.4,N
1711056915.4,286046999.3,N
1711056935.2,286047000.9,N
1711056955.0,286046997.2,N
1711056955.9,286046997.2,N
1711056975.8,286047001.0,N
1711056995.6,286046996.2,N
1711057015.4,286046995.7,N
1711057035.3,286046995.2,N
1711057055.1,286046997.5,N
1711057075.8,286046999.3,N
1711057095.7,286046997.4,N
1711057115.5,286046999.1,N
1711057135.4,286046996.9,N
1711057155.2,286046997.3,N
1711057175.0,286046997.8,N
1711057175.9,286046997.8,N
1711057195.8,286046994.4,Y
1711057215.6,286046996.9,P
1711057235.5,286046994.9,P
1711057255.3,286046997.8,N
1711057275.1,286046995.8,Y
1711057295.9,286046998.8,P
1711057315.7,286046997.0,N
1711057335.5,286046997.4,N
1711057355.4,286046998.3,N
1711057375.2,286046998.5,N
1711057395.1,286047000.5,N
1711057396.0,286047000.5,N
1711057415.8,286047000.9,N
1711057435.6,286047000.5,N
1711057455.5,286047005.7,Y
1711057475.3,286047004.8,P
1711057495.1,286047007.0,N
1711057515.9,286047006.6,N
1711057535.7,286047008.7,N
1711057555.6,286047009.8,N
1711057575.4,286047008.2,N
1711057595.2,286047004.9,N
1711057615.1,286047002.9,N
1711057616.0,286047002.9,N
1711057635.8,286047003.4,N
1711057655.6,286047004.1,N
1711057675.5,286047001.8,N
1711057695.3,286047000.1,N
1711057715.2,286047004.2,N
1711057735.9,286047008.9,N
1711057755.7,286047012.1,Y
1711057775.6,286047003.6,P
1711057795.4,286047006.7,P
1711057815.2,286047009.3,P
1711057835.1,286047007.1,Y
1711057836.0,286047007.1,P
1711057855.8,286047001.2,N
1711057875.7,286047000.4,N
1711057895.5,286046999.3,N
1711057915.3,286046998.3,N
1711057935.2,286046996.4,N
1711057955.0,286046993.4,N
1711057955.9,286046993.4,N
1711057975.8,286046997.5,N
1711057995.6,286046996.4,N
1711058015.5,286046993.6,N
1711058035.3,286046999.3,N
1711058055.1,286047001.4,N
1711058075.9,286047000.5,N
1711058095.7,286047001.4,N
1711058115.6,286047004.0,N
1711058135.4,286047004.2,N
1711058155.2,286047005.0,N
1711058175.1,286047005.9,N
1711058176.0,286047005.9,N
1711058195.8,286047001.9,N
1711058215.6,286047004.3,N
1711058235.5,286047005.9,N
1711058255.3,286047007.0,N
1711058275.2,286047009.6,N
1711058295.9,286047014.3,Y
1711058315.7,286047007.5,P
1711058335.6,286047000.0,N
1711058355.4,286047000.4,N
1711058375.2,286047001.9,N
1711058395.1,286047006.2,N
1711058396.0,286047006.2,N
